Tracking 29892 objects as of 21-Nov-2024
HD Live streaming from Space Station
objects crossing your sky now

STARLINK-31260

Track STARLINK-31260 now!
10-day predictions
STARLINK-31260 is classified as:


NORAD ID: 58881
Int'l Code: 2024-020F
Perigee: 481.5 km
Apogee: 483.2 km
Inclination: 53.2 °
Period: 94.1 minutes
Semi major axis: 6853 km
RCS: Unknown
Launch date: January 29, 2024
Source: United States (US)
Launch site: AIR FORCE WESTERN TEST RANGE (AFWTR)
Your satellite tracking list
Your tracking list is empty




NASA's NSSDC Master Catalog

Two Line Element Set (TLE):
1 58881U 24020F   24325.50936052  .00000858  00000-0  41083-4 0  9995
2 58881  53.1587   4.8226 0001280  75.6272 284.4871 15.30197218 45474
Source of the keplerian elements: AFSPC